When you browse on this site, cookies collect data to enhance your experience and personalize the content and advertising you see.
Visit our Privacy Policy to learn more. By continuing to use the site, you agree to this use of cookies and data.
  • în România
  • Lista ţărilor
  • Pe 7 zile
  • Temperatura apei
  • Hartă satelitară
  • Meteo pe hartă
  • Widget-uri
  • user-avatar
    Intrare

    Meteo pe oră la Auckland

    Astăzi, 26 Mai, Duminică

    Timp Temperatura Precipitaţii Vânt Presiune Umiditate
    00:00 +12°C° 0 mm 0 m/s 766 mmHg 85%
    01:00 +12°C° 0 mm 0 m/s 766 mmHg 86%
    02:00 +12°C° 0 mm 0 m/s 766 mmHg 87%
    03:00 +11°C° 0 mm 0 m/s 766 mmHg 87%
    04:00 +11°C° 0 mm 0 m/s 766 mmHg 88%
    05:00 +12°C° 0 mm 1 m/s 766 mmHg 88%
    06:00 +12°C° 0 mm 1 m/s 765 mmHg 89%
    07:00 +13°C° 0 mm 1 m/s 766 mmHg 85%
    08:00 +14°C° 0 mm 1 m/s 766 mmHg 82%
    09:00 +14°C° 0 mm 1 m/s 766 mmHg 78%
    10:00 +16°C° 0 mm 1 m/s 766 mmHg 70%
    11:00 +17°C° 0 mm 0 m/s 765 mmHg 62%
    12:00 +19°C° 0 mm 0 m/s 765 mmHg 54%
    13:00 +21°C° 0 mm 1 m/s 765 mmHg 53%
    14:00 +21°C° 0 mm 1 m/s 765 mmHg 52%
    15:00 +20°C° 0 mm 2 m/s 764 mmHg 52%
    16:00 +18°C° 0 mm 2 m/s 764 mmHg 59%
    17:00 +17°C° 0 mm 2 m/s 764 mmHg 67%
    18:00 +15°C° 0 mm 2 m/s 764 mmHg 74%
    19:00 +15°C° 0 mm 2 m/s 764 mmHg 77%
    20:00 +14°C° 0 mm 2 m/s 764 mmHg 80%
    21:00 +14°C° 0 mm 2 m/s 764 mmHg 83%
    22:00 +14°C° 0 mm 2 m/s 764 mmHg 83%
    23:00 +13°C° 0 mm 2 m/s 764 mmHg 83%

    Mâine, 27 Mai, Luni

    Timp Temperatura Precipitaţii Vânt Presiune Umiditate
    00:00 +13°C° 0 mm 2 m/s 764 mmHg 83%
    01:00 +13°C° 0 mm 2 m/s 764 mmHg 83%
    02:00 +13°C° 0 mm 2 m/s 764 mmHg 84%
    03:00 +12°C° 0 mm 3 m/s 763 mmHg 84%
    04:00 +12°C° 0 mm 3 m/s 763 mmHg 87%
    05:00 +12°C° 0 mm 3 m/s 763 mmHg 90%
    06:00 +12°C° 0 mm 3 m/s 762 mmHg 93%
    07:00 +13°C° 0.1 mm 4 m/s 762 mmHg 91%
    08:00 +14°C° 0.1 mm 4 m/s 762 mmHg 90%
    09:00 +15°C° 0.1 mm 4 m/s 762 mmHg 88%
    10:00 +18°C° 0 mm 4 m/s 762 mmHg 82%
    11:00 +19°C° 0 mm 4 m/s 762 mmHg 76%
    12:00 +21°C° 0 mm 3 m/s 762 mmHg 70%
    13:00 +21°C° 0 mm 4 m/s 761 mmHg 69%
    14:00 +21°C° 0 mm 4 m/s 761 mmHg 69%
    15:00 +21°C° 0 mm 4 m/s 760 mmHg 68%
    16:00 +20°C° 0 mm 4 m/s 760 mmHg 73%
    17:00 +18°C° 0 mm 4 m/s 760 mmHg 78%
    18:00 +17°C° 0 mm 4 m/s 760 mmHg 83%
    19:00 +17°C° 0 mm 4 m/s 760 mmHg 85%
    20:00 +15°C° 0 mm 4 m/s 760 mmHg 87%
    21:00 +16°C° 0 mm 3 m/s 760 mmHg 90%
    22:00 +16°C° 0 mm 3 m/s 760 mmHg 91%
    23:00 +14°C° 0 mm 3 m/s 760 mmHg 92%

    Poimâine, 28 Mai, Marţi

    Timp Temperatura Precipitaţii Vânt Presiune Umiditate
    00:00 +14°C° 0 mm 3 m/s 760 mmHg 93%
    01:00 +14°C° 0 mm 3 m/s 760 mmHg 93%
    02:00 +14°C° 0 mm 3 m/s 760 mmHg 94%
    03:00 +14°C° 0 mm 3 m/s 759 mmHg 95%
    04:00 +14°C° 0 mm 4 m/s 759 mmHg 94%
    05:00 +14°C° 0 mm 4 m/s 758 mmHg 92%
    06:00 +14°C° 0 mm 4 m/s 758 mmHg 91%
    07:00 +15°C° 0 mm 5 m/s 758 mmHg 88%
    08:00 +15°C° 0 mm 5 m/s 757 mmHg 86%
    09:00 +16°C° 0 mm 6 m/s 757 mmHg 83%
    10:00 +17°C° 0.4 mm 6 m/s 756 mmHg 84%
    11:00 +17°C° 0.4 mm 7 m/s 756 mmHg 84%
    12:00 +18°C° 0.4 mm 7 m/s 755 mmHg 85%
    13:00 +18°C° 0.3 mm 7 m/s 754 mmHg 83%
    14:00 +20°C° 0.3 mm 7 m/s 753 mmHg 82%
    15:00 +20°C° 0.3 mm 7 m/s 752 mmHg 80%
    16:00 +18°C° 0.8 mm 8 m/s 752 mmHg 82%
    17:00 +18°C° 0.8 mm 8 m/s 752 mmHg 84%
    18:00 +17°C° 0.8 mm 9 m/s 752 mmHg 86%
    19:00 +17°C° 0.7 mm 9 m/s 752 mmHg 85%
    20:00 +17°C° 0.7 mm 9 m/s 753 mmHg 84%
    21:00 +16°C° 0.7 mm 9 m/s 753 mmHg 83%
    22:00 +16°C° 0.2 mm 9 m/s 753 mmHg 80%
    23:00 +16°C° 0.2 mm 10 m/s 754 mmHg 76%

    29 Mai, Miercuri

    Timp Temperatura Precipitaţii Vânt Presiune Umiditate
    00:00 +14°C° 0.2 mm 10 m/s 755 mmHg 73%
    01:00 +14°C° 0.1 mm 10 m/s 755 mmHg 71%
    02:00 +15°C° 0.1 mm 9 m/s 755 mmHg 68%
    03:00 +15°C° 0.1 mm 9 m/s 756 mmHg 66%
    04:00 +15°C° 0 mm 9 m/s 756 mmHg 66%
    05:00 +15°C° 0 mm 8 m/s 757 mmHg 65%
    06:00 +15°C° 0 mm 7 m/s 757 mmHg 65%
    07:00 +15°C° 0 mm 7 m/s 758 mmHg 65%
    08:00 +16°C° 0 mm 6 m/s 759 mmHg 64%
    09:00 +16°C° 0 mm 6 m/s 760 mmHg 64%
    10:00 +17°C° 0 mm 5 m/s 760 mmHg 61%
    11:00 +19°C° 0 mm 5 m/s 760 mmHg 59%
    12:00 +19°C° 0 mm 5 m/s 761 mmHg 56%
    13:00 +19°C° 0 mm 4 m/s 761 mmHg 57%
    14:00 +19°C° 0 mm 4 m/s 760 mmHg 58%
    15:00 +19°C° 0 mm 4 m/s 760 mmHg 59%
    16:00 +18°C° 0 mm 4 m/s 761 mmHg 64%
    17:00 +17°C° 0 mm 3 m/s 761 mmHg 69%
    18:00 +16°C° 0 mm 3 m/s 761 mmHg 74%
    19:00 +16°C° 0 mm 3 m/s 762 mmHg 76%
    20:00 +14°C° 0 mm 4 m/s 762 mmHg 78%
    21:00 +14°C° 0 mm 4 m/s 763 mmHg 80%
    22:00 +14°C° 0 mm 4 m/s 763 mmHg 81%
    23:00 +14°C° 0 mm 4 m/s 763 mmHg 81%

    30 Mai, Joi

    Timp Temperatura Precipitaţii Vânt Presiune Umiditate
    00:00 +14°C° 0 mm 5 m/s 763 mmHg 81%
    01:00 +13°C° 0 mm 5 m/s 763 mmHg 81%
    02:00 +13°C° 0 mm 5 m/s 763 mmHg 82%
    03:00 +13°C° 0 mm 5 m/s 763 mmHg 82%
    04:00 +13°C° 0 mm 5 m/s 763 mmHg 82%
    05:00 +13°C° 0 mm 5 m/s 763 mmHg 82%
    06:00 +13°C° 0 mm 5 m/s 762 mmHg 82%
    07:00 +13°C° 0 mm 5 m/s 763 mmHg 79%
    08:00 +14°C° 0 mm 5 m/s 763 mmHg 77%
    09:00 +15°C° 0 mm 5 m/s 763 mmHg 75%
    10:00 +16°C° 0 mm 6 m/s 763 mmHg 69%
    11:00 +17°C° 0 mm 6 m/s 763 mmHg 63%
    12:00 +19°C° 0 mm 6 m/s 763 mmHg 58%
    13:00 +19°C° 0 mm 6 m/s 762 mmHg 58%
    14:00 +19°C° 0 mm 6 m/s 762 mmHg 58%
    15:00 +20°C° 0 mm 5 m/s 761 mmHg 58%
    16:00 +19°C° 0.1 mm 6 m/s 761 mmHg 62%
    17:00 +17°C° 0.1 mm 6 m/s 761 mmHg 67%
    18:00 +16°C° 0.1 mm 6 m/s 761 mmHg 71%
    19:00 +16°C° 0.1 mm 6 m/s 760 mmHg 71%
    20:00 +16°C° 0.1 mm 7 m/s 760 mmHg 72%
    21:00 +16°C° 0.1 mm 7 m/s 760 mmHg 72%
    22:00 +16°C° 0 mm 7 m/s 759 mmHg 72%
    23:00 +16°C° 0 mm 8 m/s 759 mmHg 72%

    31 Mai, Vineri

    Timp Temperatura Precipitaţii Vânt Presiune Umiditate
    00:00 +16°C° 0 mm 8 m/s 758 mmHg 72%
    01:00 +15°C° 0 mm 8 m/s 758 mmHg 72%
    02:00 +15°C° 0 mm 9 m/s 757 mmHg 73%
    03:00 +15°C° 0 mm 9 m/s 756 mmHg 73%
    04:00 +15°C° 0.2 mm 9 m/s 755 mmHg 75%
    05:00 +15°C° 0.2 mm 9 m/s 755 mmHg 76%
    06:00 +15°C° 0.2 mm 9 m/s 754 mmHg 78%
    07:00 +14°C° 2.5 mm 10 m/s 753 mmHg 81%
    08:00 +14°C° 2.5 mm 10 m/s 753 mmHg 84%
    09:00 +14°C° 2.5 mm 11 m/s 752 mmHg 87%
    10:00 +14°C° 0.9 mm 11 m/s 751 mmHg 86%
    11:00 +16°C° 0.9 mm 11 m/s 751 mmHg 85%
    12:00 +15°C° 0.9 mm 12 m/s 750 mmHg 84%
    13:00 +14°C° 1.7 mm 11 m/s 750 mmHg 84%
    14:00 +13°C° 1.7 mm 10 m/s 749 mmHg 84%
    15:00 +12°C° 1.7 mm 9 m/s 749 mmHg 83%
    16:00 +12°C° 0.2 mm 8 m/s 749 mmHg 81%
    17:00 +12°C° 0.2 mm 8 m/s 749 mmHg 79%
    18:00 +12°C° 0.2 mm 7 m/s 750 mmHg 77%
    19:00 +12°C° 0.2 mm 7 m/s 750 mmHg 76%
    20:00 +12°C° 0.2 mm 7 m/s 749 mmHg 74%
    21:00 +11°C° 0.2 mm 7 m/s 749 mmHg 73%
    22:00 +11°C° 2.5 mm 7 m/s 749 mmHg 78%
    23:00 +11°C° 2.5 mm 7 m/s 748 mmHg 84%
    Arată mai mult